User: anonymous   Login
Location: Unspecified
(43.4354°N, 0.0000°E)
Time: 07:47:59
(UTC+00:00)
Language:

Vanguard 1 Rocket - Orbit

View from above orbital plane
View from above orbital plane
View from above satellite
View from above satellite

Ground track
Ground track

The orbit data is extracted from the following two-line orbital elements,

1    16U 58002A   19286.00652450 -.00000060 +00000-0 -10853-3 0  9998
2    16 034.2758 152.0032 2028080 270.2515 066.7401 10.48739388432759
Epoch (UTC): 13 October 2019 00:09:23
Eccentricity: 0.2028080
inclination: 34.2758°
perigee height: 650 km
apogee height: 4226 km
right ascension of ascending node: 152.0032°
argument of perigee: 270.2515°
revolutions per day: 10.48739388
mean anomaly at epoch: 66.7401°
orbit number at epoch: 43275

The dashed part of the orbit path shows where the satellite is in the earth's shadow,  

DLR